Weather History for KFOA - October, 2011

Change the Weather History Date:

Tuesday, October 18, 2011

  Actual Average (KEVV) Record (KEVV)
Temperature  
Mean Temperature 47 °F 57 °F  
Max Temperature 50 °F 69 °F 86 °F (1924)
Min Temperature 44 °F 45 °F 26 °F (1948)
Degree Days  
Heating Degree Days 18 9  
Month to date heating degree days 120  
Since 1 July heating degree days 167  
Cooling Degree Days 0 1  
Month to date cooling degree days 25  
Year to date cooling degree days 1391  
Moisture  
Dew Point 43 °F    
Average Humidity 87    
Maximum Humidity 93    
Minimum Humidity 76    
Precipitation  
Precipitation 0.89 in 0.11 in 2.11 in (2004)
Month to date precipitation 1.83  
Year to date precipitation 35.80  
Snow  
Snow 0.00 in 0.00 in - ()
Month to date snowfall 0.0  
Since 1 July snowfall 0.0  
Since 1 September snowfall 0.0  
Snow Depth -    
Sea Level Pressure  
Sea Level Pressure 29.84 in    
Wind  
Wind Speed 8 mph (NNW)    
Max Wind Speed 13 mph    
Max Gust Speed 23 mph    
Visibility 9 miles    
Events Rain    
T = Trace of Precipitation, MM = Missing Value Source: NWS Daily Summary

Daily Weather History Graph

Daily Weather History Graph

Search for Another Location

Airport or City:

Trip Planner

Search our weather history database for the weather conditions in past years. The results will help you decide how hot, cold, wet, or windy it might be!

Date:

Astronomy

Oct. 18, 2011 Rise Set
Actual Time 7:05 AM CDT 6:11 PM CDT
Civil Twilight 6:38 AM CDT 6:38 PM CDT
Nautical Twilight 6:07 AM CDT 7:09 PM CDT
Astronomical Twilight 5:37 AM CDT 7:40 PM CDT
Moon 10:54 PM CDT (10/18) 12:54 PM CDT (10/18)
Length of Visible Light 11h 59m
Length of Day
11h 05m
Waning Gibbous, 64% of the Moon is Illuminated
Oct 18
Waning Gibbous
Oct 19
Last Quarter
Oct 26
New
Nov 2
First Quarter
Nov 10
Full

Hourly Weather History & Observations

Time (CDT) Temp. Windchill Dew Point Humidity Pressure Visibility Wind Dir Wind Speed Gust Speed Precip Events Conditions
12:15 AM 46.4 °F 41.1 °F 39.2 °F 76% 29.90 in 10.0 mi NNW 11.5 mph 16.1 mph N/A   Scattered Clouds
12:35 AM 46.4 °F 42.4 °F 41.0 °F 81% 29.89 in 10.0 mi North 8.1 mph - N/A   Scattered Clouds
12:55 AM 46.4 °F 41.5 °F 41.0 °F 81% 29.88 in 10.0 mi North 10.4 mph - N/A   Mostly Cloudy
1:15 AM 46.4 °F 41.5 °F 41.0 °F 81% 29.86 in 10.0 mi North 10.4 mph - N/A   Mostly Cloudy
1:35 AM 46.4 °F 42.9 °F 41.0 °F 81% 29.87 in 10.0 mi North 6.9 mph - N/A   Mostly Cloudy
1:55 AM 46.4 °F 44.3 °F 41.0 °F 81% 29.92 in 10.0 mi NW 4.6 mph - N/A Rain Light Rain
2:15 AM 46.4 °F 44.3 °F 42.8 °F 87% 29.91 in 10.0 mi NNW 4.6 mph - N/A Rain Rain
2:35 AM 46.4 °F 41.5 °F 42.8 °F 87% 29.90 in 1.0 mi NNW 10.4 mph - N/A   Unknown
2:55 AM 44.6 °F 38.4 °F 42.8 °F 93% 29.87 in 4.0 mi NNW 12.7 mph - 0.26 in   Overcast
3:15 AM 44.6 °F 38.8 °F 42.8 °F 93% 29.87 in 10.0 mi North 11.5 mph - N/A Rain Rain
3:35 AM 44.6 °F 39.7 °F 42.8 °F 93% 29.89 in 10.0 mi NW 9.2 mph - 0.03 in Rain Light Rain
3:55 AM 44.6 °F 40.2 °F 42.8 °F 93% 29.88 in 5.0 mi NNW 8.1 mph - 0.09 in Rain Rain
4:15 AM 44.6 °F 40.7 °F 41.0 °F 87% 29.89 in 4.0 mi NNW 6.9 mph - 0.05 in Rain Light Rain
4:35 AM 44.6 °F 42.2 °F 41.0 °F 87% 29.87 in 10.0 mi North 4.6 mph - 0.08 in Rain Light Rain
4:55 AM 44.6 °F 42.2 °F 41.0 °F 87% 29.87 in 10.0 mi North 4.6 mph - 0.09 in Rain Rain
5:15 AM 44.6 °F 42.2 °F 41.0 °F 87% 29.87 in 10.0 mi North 4.6 mph - N/A Rain Rain
5:35 AM 44.6 °F 41.4 °F 41.0 °F 87% 29.85 in 10.0 mi North 5.8 mph - N/A   Overcast
5:55 AM 44.6 °F 42.2 °F 42.8 °F 93% 29.85 in 10.0 mi North 4.6 mph - N/A   Overcast
6:15 AM 44.6 °F 42.2 °F 41.0 °F 87% 29.85 in 10.0 mi NNW 4.6 mph - N/A   Overcast
6:35 AM 44.6 °F 40.7 °F 41.0 °F 87% 29.83 in 10.0 mi North 6.9 mph - N/A   Overcast
6:55 AM 44.6 °F - 41.0 °F 87% 29.84 in 10.0 mi Calm Calm - N/A   Overcast
7:15 AM 44.6 °F - 41.0 °F 87% 29.83 in 10.0 mi Calm Calm - N/A   Overcast
7:35 AM 44.6 °F - 41.0 °F 87% 29.84 in 10.0 mi Calm Calm - N/A   Overcast
7:55 AM 44.6 °F 42.2 °F 42.8 °F 93% 29.87 in 10.0 mi West 4.6 mph - N/A   Drizzle
8:15 AM 44.6 °F 40.7 °F 42.8 °F 93% 29.85 in 7.0 mi WNW 6.9 mph - 0.03 in Rain Light Rain
8:35 AM 44.6 °F 38.4 °F 42.8 °F 93% 29.85 in 7.0 mi NW 12.7 mph 21.9 mph 0.05 in Rain Rain
8:55 AM 44.6 °F 39.7 °F 42.8 °F 93% 29.85 in 7.0 mi NW 9.2 mph 19.6 mph 0.08 in Rain Rain
9:15 AM 44.6 °F 39.7 °F 42.8 °F 93% 29.85 in 5.0 mi NW 9.2 mph 17.3 mph 0.03 in Rain Rain
9:35 AM 44.6 °F 39.7 °F 42.8 °F 93% 29.86 in 2.5 mi NW 9.2 mph - 0.08 in Rain Light Rain
9:55 AM 44.6 °F 40.7 °F 42.8 °F 93% 29.86 in 4.0 mi WNW 6.9 mph 23.0 mph 0.12 in Rain Rain
10:15 AM 46.4 °F 44.3 °F 42.8 °F 87% 29.85 in 4.0 mi NNW 4.6 mph - 0.04 in Rain Rain
10:35 AM 46.4 °F 44.3 °F 42.8 °F 87% 29.85 in 7.0 mi NNW 4.6 mph - 0.07 in Rain Light Rain
10:55 AM 46.4 °F 45.2 °F 42.8 °F 87% 29.85 in 7.0 mi NNW 3.5 mph - 0.09 in Rain Rain
11:15 AM 46.4 °F 41.5 °F 44.6 °F 93% 29.82 in 7.0 mi NNW 10.4 mph - 0.02 in Rain Rain
11:35 AM 46.4 °F 43.5 °F 44.6 °F 93% 29.85 in 7.0 mi WNW 5.8 mph - N/A Rain Light Rain
11:55 AM 46.4 °F 44.3 °F 42.8 °F 87% 29.85 in 5.0 mi NW 4.6 mph - 0.06 in Rain Rain
12:15 PM 46.4 °F 42.9 °F 44.6 °F 93% 29.83 in 7.0 mi NW 6.9 mph - 0.02 in Rain Light Rain
12:35 PM 46.4 °F 43.5 °F 44.6 °F 93% 29.83 in 10.0 mi NW 5.8 mph - 0.02 in Rain Rain
12:55 PM 46.4 °F 42.4 °F 42.8 °F 87% 29.81 in 10.0 mi NNW 8.1 mph - 0.03 in   Drizzle
1:15 PM 48.2 °F - 44.6 °F 87% 29.80 in 10.0 mi NW 6.9 mph - N/A   Light Drizzle
1:35 PM 48.2 °F - 44.6 °F 87% 29.80 in 10.0 mi NW 8.1 mph - N/A   Light Drizzle
2:15 PM 50.0 °F - 44.6 °F 82% 29.80 in 10.0 mi NNW 6.9 mph - N/A Rain Light Rain
2:35 PM 50.0 °F - 44.6 °F 82% 29.80 in 10.0 mi NW 9.2 mph - N/A   Light Drizzle
2:55 PM 50.0 °F - 44.6 °F 82% 29.80 in 10.0 mi NW 10.4 mph - N/A Rain Light Rain
3:15 PM 50.0 °F - 44.6 °F 82% 29.79 in 10.0 mi NNW 9.2 mph - N/A Rain Rain
3:35 PM 48.2 °F - 44.6 °F 87% 29.79 in 10.0 mi NW 9.2 mph - N/A   Overcast
3:55 PM 48.2 °F - 42.8 °F 82% 29.81 in 10.0 mi WNW 6.9 mph - N/A   Overcast
4:15 PM 48.2 °F - 42.8 °F 82% 29.81 in 10.0 mi WNW 8.1 mph - N/A Rain Rain
4:35 PM 48.2 °F - 44.6 °F 87% 29.80 in 7.0 mi NW 6.9 mph - 0.01 in Rain Heavy Rain
4:55 PM 48.2 °F - 44.6 °F 87% 29.79 in 10.0 mi NNW 6.9 mph - 0.02 in Rain Rain
5:15 PM 48.2 °F - 44.6 °F 87% 29.79 in 10.0 mi NNW 6.9 mph - N/A   Light Drizzle
5:35 PM 48.2 °F - 44.6 °F 87% 29.79 in 10.0 mi NW 5.8 mph - N/A   Light Drizzle
5:55 PM 48.2 °F - 41.0 °F 76% 29.79 in 10.0 mi NW 9.2 mph 17.3 mph N/A Rain Light Rain
6:15 PM 48.2 °F - 44.6 °F 87% 29.80 in 10.0 mi NNW 3.5 mph - 0.01 in Rain Light Rain
6:35 PM 48.2 °F - 41.0 °F 76% 29.80 in 10.0 mi NNW 10.4 mph - 0.02 in Rain Light Rain
6:55 PM 48.2 °F - 41.0 °F 76% 29.80 in 10.0 mi NW 10.4 mph - 0.04 in Rain Rain
7:15 PM 46.4 °F 42.4 °F 41.0 °F 81% 29.80 in 10.0 mi NNW 8.1 mph 16.1 mph 0.01 in Rain Light Rain
7:35 PM 46.4 °F 41.5 °F 41.0 °F 81% 29.80 in 10.0 mi NNW 10.4 mph - 0.01 in   Light Drizzle
7:55 PM 46.4 °F 42.9 °F 39.2 °F 76% 29.79 in 10.0 mi North 6.9 mph - 0.01 in   Overcast
8:15 PM 46.4 °F - 41.0 °F 81% 29.80 in 10.0 mi Calm Calm - N/A   Overcast
8:35 PM 46.4 °F - 41.0 °F 81% 29.80 in 10.0 mi Calm Calm - N/A   Overcast
8:55 PM 46.4 °F 44.3 °F 42.8 °F 87% 29.78 in 10.0 mi NNW 4.6 mph - N/A   Drizzle
9:15 PM 46.4 °F 44.3 °F 42.8 °F 87% 29.78 in 10.0 mi WNW 4.6 mph - N/A Rain Light Rain
9:35 PM 48.2 °F - 44.6 °F 87% 29.78 in 10.0 mi WNW 4.6 mph - N/A   Overcast
9:55 PM 48.2 °F - 44.6 °F 87% 29.78 in 10.0 mi WNW 5.8 mph - N/A   Overcast
10:15 PM 48.2 °F - 44.6 °F 87% 29.78 in 10.0 mi NW 5.8 mph - N/A   Light Drizzle
10:35 PM 46.4 °F 42.9 °F 42.8 °F 87% 29.77 in 10.0 mi WNW 6.9 mph - N/A   Mostly Cloudy
10:55 PM 46.4 °F 44.3 °F 42.8 °F 87% 29.77 in 10.0 mi WNW 4.6 mph - N/A   Mostly Cloudy
11:15 PM 46.4 °F 43.5 °F 42.8 °F 87% 29.77 in 10.0 mi WNW 5.8 mph - N/A Rain Light Rain
11:35 PM 46.4 °F 42.9 °F 41.0 °F 81% 29.77 in 10.0 mi West 6.9 mph - N/A   Overcast
11:55 PM 46.4 °F 42.9 °F 42.8 °F 87% 29.75 in 10.0 mi West 6.9 mph - N/A   Overcast